Regional Weather Roundup
Issued by NWS Charleston, SC

Home | Current Version | Previous Version | Text Only | Print | Product List | Glossary On
Versions: 1 2 3 4 5 6 7 8 9 10 11 12 13 14 15 16 17 18 19 20 21 22 23 24 25 26 27 28 29 30 31 32 33 34 35 36 37 38 39 40 41 42 43 44 45 46 47 48 49 50
000
ASUS42 KCHS 310911
RWRCHS

REGIONAL WEATHER ROUNDUP
NATIONAL WEATHER SERVICE CHARLESTON SC
400 AM EST SAT JAN 31 2015

NOTE: "FAIR" INDICATES FEW OR NO CLOUDS BELOW 12,000 FEET WITH NO
SIGNIFICANT WEATHER AND/OR OBSTRUCTIONS TO VISIBILITY.

NOT ALL STATIONS ARE QUALITY CONTROLLED BY THE NATIONAL
WEATHER SERVICE. USE DATA WITH CAUTION...ESPECIALLY
DEWPOINT OBSERVATIONS.

SCZ027-030-031-034>040-042>050-311000-
...SOUTHEAST SOUTH CAROLINA...

CITY           SKY/WX    TMP DP  RH WIND       PRES   REMARKS
N CHARLESTON   CLEAR     33  18  53 NE6       30.33R WCI  28
WATERFRONT PRK   N/A     37 N/A N/A N9G15       N/A  WCI  31
MOUNT PLEASANT FAIR      32  23  69 CALM      30.33S
PINOPOLIS        N/A     39  19  45 NE14      30.24S WCI  31
MONCKS CORNER  FAIR      37  18  44 NE3       30.33R
SUMMERVILLE    NOT AVBL
BEAUFORT MCAS  CLEAR     33  23  66 N7        30.33S WCI  27
BEAUFORT ARPT  FAIR      36  30  80 N5        30.32S WCI  32
HILTON HEAD IS CLEAR     41  28  60 N8        30.34R
WALTERBORO     NOT AVBL
ALLENDALE      FAIR      32  23  69 N3        30.34R

...SOUTHERN MIDLANDS AND PEE DEE...

CITY           SKY/WX    TMP DP  RH WIND       PRES   REMARKS
GEORGETOWN     NOT AVBL
KINGSTREE      NOT AVBL
ORANGEBURG     CLEAR     29  23  78 CALM      30.34R
BARNWELL       FAIR      30  23  74 CALM      30.35R
AIKEN          FAIR      32  19  59 CALM      30.36S
MANNING        FAIR      32  19  59 CALM      30.34S
COLUMBIA       CLEAR     26  20  77 W5        30.34S WCI  20
SUMTER         CLEAR     25  14  63 NE8       30.32S WCI  17
FLORENCE       CLEAR     29  13  51 N6        30.33S WCI  23
MYRTLE BEACH   CLEAR     32  12  43 N9        30.34R WCI  24
N MYRTLE BEACH CLEAR     32  12  43 N7        30.32R WCI  26

$$

GAZ063-065-086>088-099>101-113>116-118-119-134>141-150-311000-
...SOUTHEAST GEORGIA...

CITY           SKY/WX    TMP DP  RH WIND       PRES   REMARKS
SAVANNAH ARPT  CLEAR     34  25  69 CALM      30.34R
HUNTER AAF     CLEAR     38  25  58 N5        30.31S WCI  35
FORT STEWART   PTCLDY    33  28  80 CALM      30.32R
STATESBORO     CLEAR     28  28 100 CALM      30.34R
SYLVANIA       SUNNY     31  29  91 CALM      30.34R
CLAXTON        FAIR      30  30 100 CALM      30.34R

...CSRA...CENTRAL AND FAR SOUTHEAST GEORGIA...

CITY           SKY/WX    TMP DP  RH WIND       PRES   REMARKS
THOMSON        CLEAR     26  25  96 CALM      30.39R
AUGUSTA-BUSH   CLEAR     26  20  77 CALM      30.35S
AUGUSTA-DANIEL CLEAR     36  16  44 N6        30.34R WCI  31
SWAINSBORO     FAIR      34  18  51 N5        30.33F WCI  30
VIDALIA        CLEAR     36  28  75 N3        30.33S
EASTMAN        FAIR      29  29 100 CALM      30.36S
HAZLEHURST     FAIR      38  30  73 N3        30.31S
ALMA           PTCLDY    36  26  67 N3        30.31S
WAYCROSS       PTCLDY    41  31  67 NE5       30.31S
JESUP          FAIR      39  32  75 CALM      30.32S
BAXLEY         FAIR      36  30  80 CALM      30.31S
BRUNSWICK      PTCLDY    41  28  60 N6        30.32R
SAINT SIMONS   PTCLDY    40  30  67 N6        30.30S WCI  36

$$

SCZ027-028-034-036>038-045-046-048>050-GAZ119-141-311000-
...LAKE AND SUPPLEMENTAL COASTAL OBSERVATIONS...

STATION/POSITION TIME  TEMP    WIND        PRES    WAVE   SWELL
                       AIR SEA DIR/SP/G            HT/PER HT/PER/DIR
                 (UTC) (F)     (DEG/KT/KT) (MB)    (FT/S) (FT/S/D)
UPR LAKE MARION  NOT AVBL
WINYAH BAY       NOT AVBL
LAKE MURRAY      0800   33      CALM  /  3 1026.8R
ACE BASIN NERRS  NOT AVBL
FORT PULASKI     0800   43 52  360/  6/  8 1027.0R
SAPELO ISLAND    0800   37      10/  5     1026.0S

$$

ANZ835-935-AMZ111-154-330-350-352-354-370-450-454-472-311000-
...C-MAN AND BUOY OBSERVATIONS...

STATION/POSITION TIME  TEMP    WIND        PRES    WAVE   SWELL
                       AIR SEA DIR/SP/G            HT/PER HT/PER/DIR
                 (UTC) (F)     (DEG/KT/KT) (MB)    (FT/S) (FT/S/D)
BUOY 41004       0850   48 68  360/ 21/ 25 1025.0R   7/ 6   2/10
BUOY 41008       0850   50 54   30/ 17/ 19 1025.6R   4/ 5
FOLLY BEACH CMAN 0800   40      10/ 13/ 15 1027.1R
CAPERS NEARSHORE 0800   41      20/ 19/ 21   N/A
FRIPP NEARSHORE  0800   45      40/ 17/ 19 1025.3R


STATION/POSITION TIME  TEMP    WIND        PRES    WAVE   SWELL
                       AIR SEA DIR/SP/G            HT/PER HT/PER/DIR
                 (UTC) (F)     (DEG/KT/KT) (MB)    (FT/S) (FT/S/D)
5E ST. MARYS GA  0821      56                N/A     3/ 5
FRYING PAN BUOY  0850   40 62  360/ 23/ 27 1025.5R   8/ 6
BUOY 41025       0850   36 64  330/ 27/ 37 1022.2R   8/ 9   3/ 20/ 9
CAPE LOOKOUT NC  0800   33     340/ 19/ 22 1024.6R
BUOY 41002       0850   55 71  320/ 23/ 31 1020.7R  14/10
BUOY 41010       0820   63 73  360/ 19/ 25 1022.0F
ST AUGUSTINE FL  0900   55      20/ 17/ 19 1025.2R


$$


USA.gov is the U.S. government's official web portal to all federal, state and local government web resources and services.